DLH786 EDDM-LTFM

Flight info

Callsign DLH786
Flight time 1h 55m
Altitude 37000
Route ROTAX3W ROTAX L603 LATLO DCT OBEDI DCT BEDOX DCT ADULA DCT ETIDA T390 RILEX
Aircraft A346/H-SDE2E3FGHIJ3J4J5M1RWXY/LB1D1

Departure

Time 2026-05-07 22:42
Airport Munich Airport (EDDM)

Arrival

Time 2026-05-08 00:38
Airport İstanbul Airport (LTFM)
Time Latitude Longitude Altitude Speed Heading
2026-05-07 22:20 48.35466 11.79702 1494 ft 0 kts 83°
2026-05-07 22:32 48.35466 11.79701 1494 ft 1 kts 83°
2026-05-07 22:33 48.35463 11.79667 1488 ft 4 kts 83°
2026-05-07 22:33 48.35461 11.79636 1477 ft 4 kts 89°
2026-05-07 22:33 48.35465 11.79604 1477 ft 4 kts 117°
2026-05-07 22:33 48.35474 11.79588 1477 ft 4 kts 160°
2026-05-07 22:34 48.35496 11.79583 1481 ft 4 kts 173°
2026-05-07 22:34 48.35511 11.79580 1477 ft 0 kts 173°
2026-05-07 22:37 48.35498 11.79582 1481 ft 3 kts 173°
2026-05-07 22:37 48.35461 11.79589 1477 ft 7 kts 173°
2026-05-07 22:37 48.35398 11.79600 1488 ft 11 kts 173°
2026-05-07 22:37 48.35311 11.79615 1489 ft 14 kts 173°
2026-05-07 22:38 48.35204 11.79633 1487 ft 17 kts 173°
2026-05-07 22:38 48.35049 11.79660 1486 ft 21 kts 173°
2026-05-07 22:38 48.34896 11.79687 1487 ft 23 kts 173°
2026-05-07 22:38 48.34777 11.79707 1489 ft 4 kts 174°
2026-05-07 22:39 48.34734 11.79717 1489 ft 9 kts 158°
2026-05-07 22:39 48.34702 11.79815 1485 ft 14 kts 91°
2026-05-07 22:39 48.34716 11.79997 1492 ft 21 kts 83°
2026-05-07 22:39 48.34751 11.80230 1483 ft 24 kts 82°
2026-05-07 22:40 48.34772 11.80466 1484 ft 15 kts 86°
2026-05-07 22:40 48.34701 11.80572 1491 ft 18 kts 169°
2026-05-07 22:40 48.34611 11.80543 1483 ft 0 kts 216°
2026-05-07 22:41 48.34603 11.80535 1486 ft 5 kts 216°
2026-05-07 22:41 48.34555 11.80481 1481 ft 13 kts 218°
2026-05-07 22:41 48.34479 11.80351 1482 ft 21 kts 244°
2026-05-07 22:41 48.34438 11.79912 1487 ft 82 kts 263°
2026-05-07 22:42 48.34342 11.78647 1490 ft 158 kts 263°
2026-05-07 22:42 48.34203 11.76729 1793 ft 193 kts 265°
2026-05-07 22:42 48.34080 11.74762 2865 ft 183 kts 264°
2026-05-07 22:42 48.33943 11.72840 3805 ft 180 kts 263°
2026-05-07 22:43 48.33792 11.70869 4407 ft 195 kts 263°
2026-05-07 22:43 48.33621 11.68770 4965 ft 211 kts 262°
2026-05-07 22:43 48.33429 11.66468 5508 ft 228 kts 262°
2026-05-07 22:43 48.33234 11.64082 6195 ft 240 kts 263°
2026-05-07 22:44 48.33044 11.61501 6850 ft 256 kts 264°
2026-05-07 22:44 48.32849 11.58768 7597 ft 266 kts 264°
2026-05-07 22:44 48.32656 11.56063 8560 ft 267 kts 264°
2026-05-07 22:44 48.32460 11.53359 9572 ft 268 kts 264°
2026-05-07 22:45 48.32256 11.50581 10497 ft 269 kts 263°
2026-05-07 22:45 48.32047 11.47763 11343 ft 272 kts 264°
2026-05-07 22:45 48.31830 11.44840 12162 ft 277 kts 264°
2026-05-07 22:45 48.31598 11.41980 13011 ft 281 kts 259°
2026-05-07 22:46 48.30900 11.39176 13846 ft 288 kts 240°
2026-05-07 22:46 48.29584 11.36880 14576 ft 296 kts 220°
2026-05-07 22:46 48.27771 11.35374 15316 ft 305 kts 200°
2026-05-07 22:46 48.25681 11.34914 16045 ft 314 kts 180°
2026-05-07 22:47 48.23582 11.35613 16792 ft 323 kts 159°
2026-05-07 22:47 48.21679 11.37528 17563 ft 332 kts 136°
2026-05-07 22:47 48.20383 11.40441 18154 ft 346 kts 112°
2026-05-07 22:47 48.19951 11.44086 18466 ft 365 kts 87°
2026-05-07 22:48 48.20605 11.47839 18735 ft 380 kts 62°
2026-05-07 22:48 48.21998 11.51382 19067 ft 395 kts 60°
2026-05-07 22:48 48.22892 11.55339 19276 ft 412 kts 83°
2026-05-07 22:48 48.22704 11.59602 19528 ft 425 kts 106°
2026-05-07 22:49 48.21696 11.63756 19879 ft 435 kts 113°
2026-05-07 22:49 48.20605 11.68039 20362 ft 443 kts 110°
2026-05-07 22:49 48.19668 11.72411 20994 ft 448 kts 107°
2026-05-07 22:49 48.18802 11.76934 21660 ft 451 kts 108°
2026-05-07 22:50 48.17643 11.81258 22278 ft 454 kts 117°
2026-05-07 22:50 48.16043 11.85330 22909 ft 456 kts 126°
2026-05-07 22:50 48.14092 11.89077 23542 ft 459 kts 131°
2026-05-07 22:50 48.12027 11.92753 24078 ft 463 kts 132°
2026-05-07 22:51 48.09877 11.96574 24595 ft 467 kts 130°
2026-05-07 22:51 48.07979 12.00514 25098 ft 472 kts 124°
2026-05-07 22:51 48.06365 12.04796 25617 ft 476 kts 117°
2026-05-07 22:51 48.05055 12.09355 26135 ft 480 kts 112°
2026-05-07 22:52 48.03849 12.14148 26655 ft 484 kts 111°
2026-05-07 22:52 48.02701 12.18828 27122 ft 488 kts 111°
2026-05-07 22:52 48.01518 12.23605 27619 ft 491 kts 111°
2026-05-07 22:52 48.00329 12.28328 28091 ft 495 kts 111°
2026-05-07 22:53 47.98989 12.33061 28542 ft 497 kts 118°
2026-05-07 22:53 47.97061 12.37345 28986 ft 496 kts 134°
2026-05-07 22:53 47.94708 12.41089 29757 ft 492 kts 135°
2026-05-07 22:53 47.92372 12.44788 30444 ft 490 kts 135°
2026-05-07 22:54 47.90055 12.48488 30969 ft 491 kts 135°
2026-05-07 22:54 47.87742 12.52211 31457 ft 492 kts 135°
2026-05-07 22:54 47.85422 12.55959 31930 ft 493 kts 135°
2026-05-07 22:54 47.83053 12.59635 32394 ft 492 kts 139°
2026-05-07 22:55 47.80568 12.63123 32924 ft 492 kts 140°
2026-05-07 22:55 47.78097 12.66632 33404 ft 493 kts 140°
2026-05-07 22:55 47.75602 12.70135 33885 ft 493 kts 140°
2026-05-07 22:55 47.73122 12.73688 34325 ft 494 kts 139°
2026-05-07 22:56 47.70683 12.77267 34719 ft 495 kts 139°
2026-05-07 22:56 47.68239 12.80896 35141 ft 495 kts 139°
2026-05-07 22:56 47.65808 12.84511 35581 ft 494 kts 139°
2026-05-07 22:56 47.63387 12.88106 36023 ft 493 kts 139°
2026-05-07 22:57 47.60968 12.91691 36450 ft 492 kts 139°
2026-05-07 22:57 47.58547 12.95270 36853 ft 490 kts 139°
2026-05-07 22:57 47.56155 12.98799 37216 ft 490 kts 139°
2026-05-07 22:57 47.53761 13.02326 37545 ft 490 kts 139°
2026-05-07 22:58 47.51347 13.05875 37813 ft 491 kts 139°
2026-05-07 22:58 47.48913 13.09448 38052 ft 492 kts 139°
2026-05-07 22:58 47.46492 13.12996 38267 ft 494 kts 139°
2026-05-07 22:58 47.44038 13.16592 38503 ft 495 kts 139°
2026-05-07 22:59 47.41589 13.20170 38721 ft 496 kts 139°
2026-05-07 22:59 47.39126 13.23764 38907 ft 497 kts 139°
2026-05-07 22:59 47.36689 13.27409 39057 ft 499 kts 137°
2026-05-07 23:00 47.32216 13.35227 39079 ft 503 kts 130°
2026-05-07 23:00 47.28350 13.43755 39076 ft 506 kts 124°
2026-05-07 23:01 47.24742 13.52654 39088 ft 506 kts 124°
2026-05-07 23:01 47.21128 13.61526 39089 ft 506 kts 124°
2026-05-07 23:02 47.17490 13.70397 39082 ft 507 kts 124°
2026-05-07 23:02 47.13832 13.79267 39082 ft 507 kts 124°
2026-05-07 23:03 47.10174 13.88106 39079 ft 507 kts 124°
2026-05-07 23:03 47.06500 13.96957 39082 ft 507 kts 124°
2026-05-07 23:04 47.02840 14.05742 39082 ft 507 kts 124°
2026-05-07 23:04 46.99149 14.14577 39071 ft 507 kts 124°
2026-05-07 23:05 46.95465 14.23367 39074 ft 506 kts 125°
2026-05-07 23:05 46.91796 14.32089 39079 ft 506 kts 125°
2026-05-07 23:06 46.88095 14.40861 39065 ft 506 kts 125°
2026-05-07 23:06 46.84387 14.49628 39074 ft 507 kts 125°
2026-05-07 23:07 46.80649 14.58430 39077 ft 507 kts 125°
2026-05-07 23:07 46.76930 14.67158 39075 ft 506 kts 125°
2026-05-07 23:08 46.73227 14.75823 39068 ft 506 kts 125°
2026-05-07 23:08 46.69468 14.84597 39058 ft 506 kts 126°
2026-05-07 23:09 46.65723 14.93305 39063 ft 506 kts 126°
2026-05-07 23:09 46.62022 15.01884 39060 ft 506 kts 126°
2026-05-07 23:10 46.58255 15.10589 39061 ft 506 kts 126°
2026-05-07 23:10 46.54499 15.19245 39060 ft 506 kts 126°
2026-05-07 23:11 46.50734 15.27890 39072 ft 506 kts 126°
2026-05-07 23:11 46.46965 15.36516 39075 ft 506 kts 126°
2026-05-07 23:12 46.43215 15.45075 39065 ft 506 kts 126°
2026-05-07 23:12 46.39422 15.53703 39062 ft 506 kts 126°
2026-05-07 23:13 46.35629 15.62301 39064 ft 506 kts 126°
2026-05-07 23:13 46.31837 15.70868 39064 ft 506 kts 126°
2026-05-07 23:14 46.28042 15.79447 39052 ft 506 kts 125°
2026-05-07 23:14 46.25169 15.86873 39061 ft 510 kts 120°
2026-05-07 23:15 46.22067 15.96099 39065 ft 511 kts 119°
2026-05-07 23:15 46.18971 16.05332 39064 ft 511 kts 119°
2026-05-07 23:16 46.15848 16.14579 39048 ft 511 kts 120°
2026-05-07 23:16 46.12715 16.23806 39059 ft 511 kts 120°
2026-05-07 23:17 46.09576 16.33011 39071 ft 511 kts 120°
2026-05-07 23:17 46.06423 16.42224 39065 ft 511 kts 120°
2026-05-07 23:18 46.03285 16.51364 39061 ft 511 kts 120°
2026-05-07 23:18 46.00126 16.60533 39054 ft 511 kts 120°
2026-05-07 23:19 45.96957 16.69696 39050 ft 511 kts 120°
2026-05-07 23:19 45.93779 16.78851 39050 ft 511 kts 120°
2026-05-07 23:20 45.90591 16.88012 39027 ft 512 kts 120°
2026-05-07 23:20 45.87389 16.97174 39032 ft 513 kts 120°
2026-05-07 23:21 45.84178 17.06329 39040 ft 513 kts 120°
2026-05-07 23:21 45.80962 17.15474 39026 ft 513 kts 121°
2026-05-07 23:22 45.77757 17.24553 39032 ft 513 kts 121°
2026-05-07 23:22 45.74523 17.33683 39034 ft 513 kts 121°
2026-05-07 23:23 45.71294 17.42766 39032 ft 513 kts 121°
2026-05-07 23:23 45.68023 17.51939 39020 ft 513 kts 121°
2026-05-07 23:24 45.61362 17.70524 39030 ft 512 kts 121°
2026-05-07 23:24 45.57248 17.81937 39032 ft 512 kts 121°
2026-05-07 23:25 45.54003 17.90905 39027 ft 512 kts 121°
2026-05-07 23:25 45.50721 17.99942 39027 ft 512 kts 121°
2026-05-07 23:26 45.47446 18.08934 39029 ft 512 kts 121°
2026-05-07 23:26 45.44183 18.17861 39023 ft 512 kts 121°
2026-05-07 23:27 45.39223 18.31374 39026 ft 512 kts 121°
2026-05-07 23:27 45.35911 18.40361 39026 ft 512 kts 121°
2026-05-07 23:28 45.32589 18.49342 39011 ft 512 kts 121°
2026-05-07 23:28 45.29260 18.58305 39024 ft 512 kts 121°
2026-05-07 23:29 45.25918 18.67220 39027 ft 512 kts 122°
2026-05-07 23:29 45.22475 18.75987 39029 ft 511 kts 123°
2026-05-07 23:30 45.18991 18.84773 39025 ft 511 kts 123°
2026-05-07 23:30 45.15502 18.93571 39031 ft 512 kts 123°
2026-05-07 23:31 45.12043 19.02279 39030 ft 512 kts 123°
2026-05-07 23:31 45.08598 19.10929 39030 ft 512 kts 123°
2026-05-07 23:32 45.05126 19.19619 39033 ft 512 kts 123°
2026-05-07 23:32 45.01611 19.28392 39032 ft 512 kts 123°
2026-05-07 23:33 44.98093 19.37144 39032 ft 512 kts 123°
2026-05-07 23:33 44.94572 19.45874 39025 ft 512 kts 123°
2026-05-07 23:34 44.91036 19.54615 39031 ft 512 kts 123°
2026-05-07 23:34 44.87461 19.63426 39035 ft 512 kts 123°
2026-05-07 23:35 44.83923 19.72117 39038 ft 512 kts 123°
2026-05-07 23:35 44.80356 19.80848 39033 ft 513 kts 123°
2026-05-07 23:36 44.76783 19.89574 39038 ft 513 kts 123°
2026-05-07 23:36 44.73206 19.98283 39039 ft 513 kts 123°
2026-05-07 23:37 44.69638 20.06942 39022 ft 513 kts 123°
2026-05-07 23:37 44.66059 20.15597 39033 ft 513 kts 123°
2026-05-07 23:38 44.62468 20.24260 39035 ft 513 kts 123°
2026-05-07 23:38 44.58868 20.32916 39037 ft 513 kts 123°
2026-05-07 23:39 44.55259 20.41563 39034 ft 513 kts 123°
2026-05-07 23:39 44.51643 20.50204 39044 ft 513 kts 123°
2026-05-07 23:40 44.48026 20.58826 39053 ft 513 kts 123°
2026-05-07 23:40 44.44400 20.67438 39040 ft 514 kts 123°
2026-05-07 23:41 44.40758 20.76058 39043 ft 514 kts 123°
2026-05-07 23:41 44.37092 20.84717 39048 ft 513 kts 123°
2026-05-07 23:42 44.33446 20.93301 39045 ft 513 kts 123°
2026-05-07 23:42 44.29796 21.01866 39039 ft 513 kts 123°
2026-05-07 23:43 44.26140 21.10419 39045 ft 512 kts 123°
2026-05-07 23:43 44.22481 21.18956 39045 ft 512 kts 124°
2026-05-07 23:44 44.18824 21.27463 39049 ft 512 kts 124°
2026-05-07 23:44 44.15156 21.35966 39049 ft 512 kts 124°
2026-05-07 23:45 44.11338 21.44793 39037 ft 512 kts 124°
2026-05-07 23:45 44.07619 21.53365 39058 ft 513 kts 124°
2026-05-07 23:46 44.03923 21.61859 39046 ft 513 kts 124°
2026-05-07 23:46 44.00216 21.70354 39063 ft 513 kts 124°
2026-05-07 23:47 43.96516 21.78805 39068 ft 513 kts 124°
2026-05-07 23:47 43.92794 21.87282 39066 ft 513 kts 124°
2026-05-07 23:48 43.89064 21.95753 39067 ft 515 kts 124°
2026-05-07 23:48 43.85326 22.04216 39070 ft 515 kts 124°
2026-05-07 23:49 43.81573 22.12690 39070 ft 515 kts 124°
2026-05-07 23:49 43.77817 22.21141 39070 ft 515 kts 124°
2026-05-07 23:50 43.74081 22.29521 39055 ft 515 kts 124°
2026-05-07 23:50 43.70311 22.37955 39067 ft 515 kts 124°
2026-05-07 23:51 43.66790 22.46653 39076 ft 517 kts 119°
2026-05-07 23:51 43.63546 22.55544 39079 ft 519 kts 119°
2026-05-07 23:52 43.60287 22.64466 39077 ft 519 kts 119°
2026-05-07 23:52 43.57022 22.73347 39073 ft 519 kts 119°
2026-05-07 23:53 43.53767 22.82151 39065 ft 519 kts 119°
2026-05-07 23:53 43.50440 22.91123 39071 ft 519 kts 119°
2026-05-07 23:54 43.47166 22.99926 39077 ft 519 kts 119°
2026-05-07 23:54 43.43856 23.08792 39080 ft 519 kts 119°
2026-05-07 23:55 43.40544 23.17634 39063 ft 519 kts 119°
2026-05-07 23:55 43.37218 23.26493 39079 ft 519 kts 119°
2026-05-07 23:56 43.33918 23.35254 39051 ft 519 kts 119°
2026-05-07 23:56 43.30579 23.44085 39059 ft 521 kts 119°
2026-05-07 23:57 43.27223 23.52945 39056 ft 523 kts 120°
2026-05-07 23:57 43.23853 23.61803 39059 ft 523 kts 120°
2026-05-07 23:58 43.20475 23.70650 39059 ft 524 kts 120°
2026-05-07 23:58 43.17137 23.79374 39058 ft 524 kts 120°
2026-05-07 23:59 43.13739 23.88228 39056 ft 525 kts 120°
2026-05-07 23:59 43.10912 23.95568 39068 ft 525 kts 120°
2026-05-08 00:00 43.07501 24.04398 39067 ft 526 kts 120°
2026-05-08 00:00 43.03500 24.14730 39058 ft 526 kts 120°
2026-05-08 00:01 43.00624 24.22131 39062 ft 526 kts 120°
2026-05-08 00:01 42.97174 24.30980 39057 ft 527 kts 120°
2026-05-08 00:02 42.93744 24.39750 39067 ft 527 kts 120°
2026-05-08 00:02 42.90281 24.48578 39068 ft 527 kts 120°
2026-05-08 00:03 42.86813 24.57383 39055 ft 527 kts 120°
2026-05-08 00:03 42.83332 24.66210 39043 ft 529 kts 120°
2026-05-08 00:04 42.79836 24.75069 39055 ft 531 kts 120°
2026-05-08 00:04 42.76327 24.83919 39064 ft 531 kts 120°
2026-05-08 00:05 42.72802 24.92777 39060 ft 531 kts 120°
2026-05-08 00:05 42.69265 25.01636 39064 ft 531 kts 120°
2026-05-08 00:06 42.65731 25.10461 39063 ft 531 kts 120°
2026-05-08 00:06 42.62225 25.19191 39060 ft 531 kts 120°
2026-05-08 00:07 42.58680 25.27986 39061 ft 531 kts 120°
2026-05-08 00:07 42.55120 25.36797 39055 ft 531 kts 120°
2026-05-08 00:08 42.51553 25.45587 39059 ft 531 kts 120°
2026-05-08 00:08 42.47993 25.54347 39060 ft 531 kts 120°
2026-05-08 00:09 42.44401 25.63157 39064 ft 530 kts 120°
2026-05-08 00:09 42.40800 25.71953 39064 ft 531 kts 120°
2026-05-08 00:10 42.37220 25.80680 39049 ft 532 kts 120°
2026-05-08 00:10 42.33556 25.89581 39060 ft 534 kts 120°
2026-05-08 00:11 42.29923 25.98375 39055 ft 534 kts 120°
2026-05-08 00:11 42.28088 26.02804 38824 ft 530 kts 120°
2026-05-08 00:11 42.26326 26.07053 38090 ft 533 kts 120°
2026-05-08 00:12 42.24511 26.11428 37191 ft 538 kts 120°
2026-05-08 00:12 42.22686 26.15829 36462 ft 539 kts 120°
2026-05-08 00:12 42.20830 26.20299 35823 ft 537 kts 120°
2026-05-08 00:12 42.19002 26.24686 35241 ft 535 kts 120°
2026-05-08 00:13 42.17182 26.29048 34682 ft 532 kts 120°
2026-05-08 00:13 42.15380 26.33360 34090 ft 530 kts 120°
2026-05-08 00:13 42.13563 26.37702 33368 ft 529 kts 120°
2026-05-08 00:13 42.11752 26.42020 32638 ft 528 kts 120°
2026-05-08 00:14 42.09941 26.46331 31913 ft 527 kts 120°
2026-05-08 00:14 42.08136 26.50623 31209 ft 525 kts 120°
2026-05-08 00:14 42.06361 26.54835 30563 ft 522 kts 120°
2026-05-08 00:14 42.04580 26.59056 29831 ft 519 kts 121°
2026-05-08 00:15 42.02795 26.63279 29014 ft 518 kts 121°
2026-05-08 00:15 42.01013 26.67485 28317 ft 514 kts 121°
2026-05-08 00:15 41.99266 26.71605 27897 ft 505 kts 121°
2026-05-08 00:15 41.97539 26.75675 27423 ft 498 kts 121°
2026-05-08 00:16 41.95800 26.79681 26895 ft 492 kts 122°
2026-05-08 00:16 41.94029 26.83593 26361 ft 487 kts 123°
2026-05-08 00:16 41.92286 26.87399 25786 ft 483 kts 122°
2026-05-08 00:16 41.90817 26.91457 25160 ft 483 kts 110°
2026-05-08 00:17 41.89769 26.95725 24673 ft 478 kts 109°
2026-05-08 00:17 41.88722 26.99959 24121 ft 474 kts 109°
2026-05-08 00:17 41.87671 27.04165 23572 ft 471 kts 109°
2026-05-08 00:17 41.86614 27.08376 22928 ft 468 kts 109°
2026-05-08 00:18 41.85577 27.12493 22313 ft 464 kts 109°
2026-05-08 00:18 41.84541 27.16602 21748 ft 460 kts 109°
2026-05-08 00:18 41.83515 27.20667 21195 ft 456 kts 109°
2026-05-08 00:18 41.82494 27.24706 20624 ft 453 kts 109°
2026-05-08 00:19 41.81499 27.28638 20097 ft 449 kts 109°
2026-05-08 00:19 41.80498 27.32588 19555 ft 445 kts 109°
2026-05-08 00:19 41.79484 27.36580 19026 ft 441 kts 109°
2026-05-08 00:19 41.78498 27.40453 18524 ft 438 kts 109°
2026-05-08 00:20 41.77518 27.44301 17944 ft 434 kts 109°
2026-05-08 00:20 41.76547 27.48110 17388 ft 430 kts 109°
2026-05-08 00:20 41.75580 27.51897 16823 ft 427 kts 109°
2026-05-08 00:20 41.74620 27.55648 16275 ft 423 kts 109°
2026-05-08 00:21 41.73668 27.59362 15723 ft 420 kts 109°
2026-05-08 00:21 41.72718 27.63060 15199 ft 417 kts 109°
2026-05-08 00:21 41.71785 27.66694 14709 ft 413 kts 109°
2026-05-08 00:21 41.70868 27.70254 14236 ft 409 kts 109°
2026-05-08 00:22 41.69944 27.73830 13708 ft 406 kts 110°
2026-05-08 00:22 41.69033 27.77352 13164 ft 403 kts 110°
2026-05-08 00:22 41.68118 27.80880 12629 ft 399 kts 110°
2026-05-08 00:22 41.67212 27.84370 12118 ft 395 kts 110°
2026-05-08 00:23 41.66298 27.87771 11607 ft 391 kts 114°
2026-05-08 00:23 41.64772 27.90778 11077 ft 384 kts 139°
2026-05-08 00:23 41.62562 27.92579 10824 ft 376 kts 159°
2026-05-08 00:23 41.60141 27.93812 10581 ft 366 kts 162°
2026-05-08 00:24 41.57796 27.94920 10273 ft 359 kts 162°
2026-05-08 00:24 41.55462 27.96009 10089 ft 348 kts 162°
2026-05-08 00:24 41.53244 27.97050 10081 ft 331 kts 162°
2026-05-08 00:24 41.51125 27.98053 10062 ft 316 kts 162°
2026-05-08 00:25 41.49089 27.99024 9943 ft 304 kts 162°
2026-05-08 00:25 41.47144 27.99956 9965 ft 293 kts 161°
2026-05-08 00:25 41.45307 28.01120 9981 ft 294 kts 152°
2026-05-08 00:25 41.43561 28.02530 9986 ft 295 kts 149°
2026-05-08 00:26 41.41818 28.03990 9984 ft 296 kts 151°
2026-05-08 00:26 41.40068 28.05434 9898 ft 298 kts 152°
2026-05-08 00:26 41.38295 28.06862 9781 ft 297 kts 152°
2026-05-08 00:26 41.36542 28.08253 9645 ft 294 kts 152°
2026-05-08 00:27 41.34790 28.09637 9512 ft 292 kts 152°
2026-05-08 00:27 41.33029 28.11024 9381 ft 291 kts 152°
2026-05-08 00:27 41.31232 28.12437 9249 ft 291 kts 152°
2026-05-08 00:27 41.29498 28.13797 9116 ft 290 kts 152°
2026-05-08 00:28 41.27793 28.15133 8989 ft 289 kts 152°
2026-05-08 00:28 41.26069 28.16482 8861 ft 288 kts 152°
2026-05-08 00:28 41.24409 28.17991 8710 ft 290 kts 137°
2026-05-08 00:28 41.23169 28.20107 8597 ft 292 kts 125°
2026-05-08 00:29 41.22078 28.22404 8461 ft 292 kts 124°
2026-05-08 00:29 41.20952 28.24778 8338 ft 291 kts 125°
2026-05-08 00:29 41.19840 28.27038 8215 ft 290 kts 126°
2026-05-08 00:29 41.18710 28.29267 8088 ft 290 kts 127°
2026-05-08 00:30 41.17571 28.31469 7955 ft 289 kts 127°
2026-05-08 00:30 41.16430 28.33651 7839 ft 288 kts 127°
2026-05-08 00:30 41.15254 28.35885 7698 ft 288 kts 127°
2026-05-08 00:30 41.14078 28.38110 7562 ft 287 kts 127°
2026-05-08 00:31 41.12875 28.40378 7404 ft 286 kts 127°
2026-05-08 00:31 41.11726 28.42548 7256 ft 285 kts 127°
2026-05-08 00:31 41.10634 28.44736 7042 ft 283 kts 118°
2026-05-08 00:31 41.10227 28.47257 6494 ft 285 kts 89°
2026-05-08 00:32 41.10459 28.49876 5901 ft 285 kts 81°
2026-05-08 00:32 41.10793 28.52448 5325 ft 285 kts 81°
2026-05-08 00:32 41.11087 28.55038 4756 ft 284 kts 83°
2026-05-08 00:32 41.11326 28.57635 4185 ft 283 kts 84°
2026-05-08 00:33 41.11524 28.60198 3953 ft 279 kts 85°
2026-05-08 00:33 41.11700 28.62719 3719 ft 272 kts 85°
2026-05-08 00:33 41.11866 28.65215 3397 ft 263 kts 85°
2026-05-08 00:33 41.12018 28.67541 3281 ft 247 kts 85°
2026-05-08 00:34 41.12165 28.69795 3125 ft 244 kts 82°
2026-05-08 00:34 41.12756 28.71837 2869 ft 233 kts 48°
2026-05-08 00:34 41.13979 28.73037 2592 ft 211 kts 13°
2026-05-08 00:34 41.15354 28.73217 2387 ft 190 kts 352°
2026-05-08 00:35 41.16628 28.73067 2188 ft 179 kts 349°
2026-05-08 00:35 41.17836 28.72955 1946 ft 170 kts 352°
2026-05-08 00:35 41.19004 28.72909 1728 ft 166 kts 354°
2026-05-08 00:35 41.20138 28.72890 1516 ft 162 kts 355°
2026-05-08 00:36 41.21259 28.72872 1317 ft 160 kts 355°
2026-05-08 00:36 41.22380 28.72849 1113 ft 159 kts 355°
2026-05-08 00:36 41.23500 28.72745 905 ft 159 kts 353°
2026-05-08 00:36 41.24587 28.72615 675 ft 159 kts 354°
2026-05-08 00:37 41.25697 28.72542 433 ft 160 kts 358°
2026-05-08 00:37 41.26793 28.72524 346 ft 140 kts 356°
2026-05-08 00:37 41.27543 28.72498 351 ft 84 kts 359°
2026-05-08 00:38 41.28410 28.72355 351 ft 40 kts 330°
2026-05-08 00:38 41.28461 28.72250 347 ft 5 kts 193°
2026-05-08 00:38 41.28412 28.72247 352 ft 9 kts 181°
2026-05-08 00:38 41.28337 28.72247 352 ft 13 kts 179°
2026-05-08 00:39 41.28220 28.72249 348 ft 20 kts 179°
2026-05-08 00:39 41.28059 28.72253 344 ft 26 kts 179°
2026-05-08 00:39 41.27865 28.72258 349 ft 30 kts 179°
2026-05-08 00:39 41.27646 28.72265 347 ft 33 kts 179°
2026-05-08 00:40 41.27398 28.72272 352 ft 36 kts 179°
2026-05-08 00:40 41.27136 28.72278 351 ft 38 kts 179°
2026-05-08 00:40 41.26896 28.72282 352 ft 29 kts 179°
2026-05-08 00:40 41.26748 28.72283 350 ft 16 kts 176°
2026-05-08 00:41 41.26713 28.72352 351 ft 11 kts 95°
2026-05-08 00:41 41.26711 28.72469 349 ft 14 kts 89°
2026-05-08 00:41 41.26712 28.72588 350 ft 0 kts 89°
2026-05-08 00:42 41.26712 28.72593 350 ft 2 kts 89°
2026-05-08 00:42 41.26712 28.72602 350 ft 0 kts 89°
2026-05-08 00:42 41.26712 28.72617 350 ft 5 kts 89°
2026-05-08 00:43 41.26714 28.72723 351 ft 19 kts 89°
2026-05-08 00:43 41.26716 28.72943 342 ft 27 kts 89°
2026-05-08 00:43 41.26719 28.73165 342 ft 24 kts 89°
2026-05-08 00:43 41.26725 28.73302 345 ft 11 kts 66°
2026-05-08 00:44 41.26800 28.73332 345 ft 14 kts
2026-05-08 00:44 41.26864 28.73358 352 ft 9 kts 52°
2026-05-08 00:44 41.26869 28.73440 350 ft 11 kts 87°
2026-05-08 00:44 41.26872 28.73558 351 ft 15 kts 89°
2026-05-08 00:45 41.26875 28.73714 350 ft 19 kts 89°
2026-05-08 00:45 41.26876 28.73834 349 ft 20 kts 90°
2026-05-08 00:45 41.26872 28.74010 351 ft 14 kts 97°
2026-05-08 00:45 41.26868 28.74084 349 ft 0 kts 90°
2026-05-08 00:46 41.26868 28.74110 349 ft 0 kts 90°
2026-05-08 00:46 41.26867 28.74130 349 ft 0 kts 90°